{"data":{"norad_id":65882,"intl_designator":"2025-224A","name":"STARLINK-35270","alt_names":[],"object_type":"PAYLOAD","status":"ACTIVE","operator":null,"country":"US","launch_date":"2025-10-07","launch_site_code":"AFETR","launch_vehicle":null,"mission":null,"orbit_class":"UNKNOWN","rcs_meters":null,"size_class":null,"mass_kg":null,"dimensions":null,"purposes":["comms"],"wikipedia_slug":null,"has_3d_model":false,"image_url":null,"decayed_at":null,"tle_current":{"epoch":"2026-05-24T22:59:19.649184Z","epoch_age_seconds":68864,"freshness":"FRESH","line1":"1 65882U 25224A   26144.95786631  .00026362  00000+0  78836-3 0  9999","line2":"2 65882  53.1605  16.2260 0001074  79.3309 280.7814 15.34410577 36513","mean_motion":15.34410577,"eccentricity":0.0001074,"inclination_deg":53.1605,"raan_deg":16.226,"arg_perigee_deg":79.3309,"mean_anomaly_deg":280.7814,"bstar":0.00078836,"rev_number":3651,"period_min":93.847111169907,"perigee_km":461.93710044921,"apogee_km":463.40650618017,"semimajor_km":6840.8088033147,"source":"CELESTRAK","updated_at":"2026-05-25T13:38:20.978436Z"}}}